This demonstration page uses our WeatherBlox Daily Observations layout. Learn more.

Left ArrowRight Arrow

Hourly Observations for January 13, 2019

Temp ( °F °C ) Dew Point ( °F °C ) Humidity (%) Winds ( mph kmh ) Pressure ( in mb ) Visibility ( mi km ) Precip ( " mm )
12:53 am 00:53 Cloudy with Light Rain 37 2.8 37 2.8 100 100 NE 8 13 30.14 1021 6 10 0.07 1.78
1:53 am 01:53 Cloudy with Light Rain 37 2.8 37 2.8 100 100 ENE 7 11 30.14 1021 6 10 0.03 0.76
2:53 am 02:53 Cloudy 37 2.8 36 2.2 96 96 ENE 10 17 30.13 1020 10 16 0.00 0.03
3:53 am 03:53 Cloudy 37 2.8 36 2.2 96 96 ENE 9 15 30.13 1020 10 16 0.00 0.00
4:53 am 04:53 Cloudy 36 2.2 35 1.7 97 97 ENE 9 15 30.12 1020 10 16 0.00 0.00
5:53 am 05:53 Cloudy 36 2.2 35 1.7 97 97 ENE 7 11 30.13 1020 10 16 0.00 0.00
6:53 am 06:53 Cloudy 36 2.2 36 2.2 100 100 ENE 9 15 30.13 1020 10 16 0.00 0.00
7:53 am 07:53 Cloudy 36 2.2 36 2.2 100 100 E 6 9 30.14 1021 10 16 0.00 0.00
8:22 am 08:22 Cloudy 36 2.2 36 2.2 100 100 ENE 3 6 30.18 1022 10 16 0.00 0.00
8:53 am 08:53 Cloudy 37 2.8 36 2.2 96 96 E 5 7 30.14 1021 9 14 0.00 0.00
9:34 am 09:34 Cloudy 37 2.8 37 2.8 100 100 E 5 7 30.21 1023 9 14 0.00 0.00
9:53 am 09:53 Cloudy 37 2.8 37 2.8 100 100 E 5 7 30.16 1021 9 14 0.00 0.00
10:53 am 10:53 Cloudy 38 3.3 38 3.3 100 100 Calm 30.19 1022 8 13 0.00 0.00
11:23 am 11:23 Cloudy with Mist and Fog 38 3.3 38 3.3 100 100 Calm 30.24 1024 4 6 0.00 0.00
11:38 am 11:38 Cloudy with Mist and Fog 39 3.9 39 3.9 100 100 Calm 30.21 1023 4 6 0.00 0.00
11:49 am 11:49 Cloudy with Mist and Fog 39 4 37 3 93 93 Calm 30.21 1023 4 6 0.00 0.00
11:53 am 11:53 Cloudy with Mist and Fog 39 3.9 38 3.3 96 96 Calm 30.16 1022 4 6 0.00 0.00
12:53 pm 12:53 Cloudy 40 4.4 40 4.4 100 100 S 3 6 30.14 1021 8 13 0.00 0.00
1:03 pm 13:03 Cloudy 40 4.4 40 4.4 100 100 SW 3 6 30.15 1021 9 14 0.00 0.00
1:53 pm 13:53 Cloudy 42 5.6 40 4.4 92 92 Calm 30.13 1020 10 16 0.00 0.00
2:32 pm 14:32 Cloudy 44 6.7 41 5 89 89 Calm 30.15 1021 10 16 0.00 0.00
2:53 pm 14:53 Cloudy 44 6.7 41 5 89 89 Calm 30.13 1020 10 16 0.00 0.00
3:53 pm 15:53 Cloudy 45 7.2 42 5.6 90 90 W 3 6 30.13 1020 10 16 0.00 0.00
4:53 pm 16:53 Cloudy 46 7.8 43 6.1 89 89 N 3 6 30.14 1021 10 16 0.00 0.00
5:53 pm 17:53 Cloudy 46 7.8 43 6.1 89 89 Calm 30.15 1021 10 16 0.00 0.00
6:53 pm 18:53 Cloudy 45 7.2 43 6.1 93 93 Calm 30.18 1022 10 16 0.00 0.00
7:53 pm 19:53 Cloudy 46 7.8 43 6.1 89 89 WNW 8 13 30.19 1023 10 16 0.00 0.00
8:42 pm 20:42 Cloudy 46 7.8 43 6.1 89 89 WNW 8 13 30.21 1023 10 16 0.00 0.00
8:53 pm 20:53 Cloudy 46 7.8 43 6.1 89 89 NW 10 17 30.21 1023 10 16 0.00 0.00
9:53 pm 21:53 Cloudy 45 7.2 43 6.1 93 93 WNW 8 13 30.21 1023 10 16 0.00 0.00
10:13 pm 22:13 Cloudy 45 7.2 43 6.1 93 93 NW 6 9 30.21 1023 10 16 0.00 0.00
10:53 pm 22:53 Cloudy 45 7.2 42 5.6 90 90 WNW 5 7 30.22 1023 10 16 0.00 0.00
11:42 pm 23:42 Cloudy 45 7.2 42 5.6 90 90 WNW 6 9 30.21 1023 10 16 0.00 0.00
11:53 pm 23:53 Cloudy 45 7.2 42 5.6 90 90 WNW 6 9 30.21 1023 10 16 0.00 0.00

Powered by AerisWeather